ROMMA est une association bénévole à but non lucratif. Votre soutien est indispensable : ADHERER à ROMMA ou FAIRE un DON

Le Versoud - (38, Isère)

Vallée du Grésivaudan (220 m)   Longitude: 05° 51' 44" E   Latitude: 45° 13' 06" N Station partenaire n°6
 

Détail journalier du     <<     >>

Température Precipitation Humidité Pression Vent Dir Rafale Dir. rafale Ensol.
Heure (°C) (mm) (%) (hPa) (km/h) (km/h) (min)
01:00 6.8072102800---0
02:00 5.4079102800---0
03:00 4.8080102800---0
04:00 3.9082102800---0
05:00 3.3084102700---0
06:00 2.6086102800---0
07:00 2.2087102800---0
08:00 2.3087102800---0
09:00 6.5074102800---25
10:00 11.1051102800---60
11:00 13.8037102703N60
12:00 15.8033102603NNE60
13:00 17.2032102508NE60
14:00 19.1031102408NE60
15:00 20.1030102308NNE60
16:00 21.50271023010NNE60
17:00 21.90271022011NNE60
18:00 21.7030102205ONO60
19:00 17.20421023011O25
20:00 14.4048102300---0
21:00 12.3059102400---0
22:00 10.8064102400---0
23:00 9.5070102400---0
minuit 8.5072102400---0

Graphique du 23-03-2019

 

Serveur OMMA